Regional Weather Roundup
Issued by NWS

Home | Current Version | Previous Version | Text Only | Print | Product List | Glossary Off
Versions: 1 2 3 4 5 6 7 8 9 10 11 12 13 14 15 16 17 18 19 20 21 22 23 24 25 26 27 28 29 30 31 32 33 34 35 36 37 38 39 40 41 42 43 44 45 46 47 48 49 50

000
ASUS43 KMKX 172111
RWRWI

WISCONSIN REGIONAL WEATHER ROUNDUP
NATIONAL WEATHER SERVICE MILWAUKEE/SULLIVAN WI
400 PM CDT THU AUG 17 2017

NOTE: "FAIR" INDICATES FEW OR NO CLOUDS BELOW 12,000 FEET WITH NO
SIGNIFICANT WEATHER AND/OR OBSTRUCTIONS TO VISIBILITY.

WIZ001-002-006>008-014>016-023>028-172200-
NORTHWEST WISCONSIN

CITY           SKY/WX    TMP DP  RH WIND       PRES   REMARKS
SUPERIOR ARPT  DRIZZLE   64  62  93 NW8G18    29.69R
ASHLAND        CLOUDY    62  61  96 N12       29.63R
HAYWARD        CLOUDY    63  60  90 N8G20     29.65R
SIREN          RAIN      63  61  96 NW8       29.71R
CUMBERLAND     CLOUDY    61  59  94 NW16G24   29.69R
RICE LAKE      CLOUDY    64  60  88 W14G21    29.69R FOG
CHETEK         CLOUDY    65  61  86 NW14G23   29.66R
LADYSMITH      CLOUDY    66  64  92 NW20G26   29.64R
EAU CLAIRE     CLOUDY    66  61  82 W18G25    29.65R
MENOMONIE      CLOUDY    67  61  82 W20       29.68R
NEW RICHMOND   CLOUDY    66  61  82 NW13G18   29.72R
OSCEOLA        CLOUDY    67  66  96 NW9       29.75R
$$

WIZ003>005-009-010-017-018-172200-
NORTH CENTRAL WISCONSIN

CITY           SKY/WX    TMP DP  RH WIND       PRES   REMARKS
MANITOWISH WTR RAIN      66  66 100 NW13      29.58R
ARBOR VITAE    LGT RAIN  72  66  81 NW12G17   29.57R
WOODRUFF       LGT RAIN  72  66  81 NW12G17   29.57R
RHINELANDER    CLOUDY    70  68  93 SW5       29.56S
EAGLE RIVER    LGT RAIN  68  67  95 CALM      29.56F
LAND O LAKES   CLOUDY    71  63  76 W5        29.58S
PHILLIPS       RAIN      67  67  99 W6        29.57R
TOMAHAWK       HVY RAIN  69  65  89 W8        29.56R
MEDFORD        CLOUDY    70  64  81 W14G22    29.58R
MERRILL        NOT AVBL
$$

WIZ029-030-035-036-043>047-172200-
CENTRAL WISCONSIN

CITY           SKY/WX    TMP DP  RH WIND       PRES   REMARKS
WAUSAU         LGT RAIN  70  67  90 W16G22    29.53S
MOSINEE        PTSUNNY   72  66  83 W17G29    29.57R
MARSHFIELD     CLOUDY    73  65  75 W14G24    29.58R
STEVENS POINT  CLOUDY    71  66  83 SW13G26   29.58R
WAUPACA        PTSUNNY   75  69  81 SW10      29.58S
WAUTOMA        CLOUDY    75  67  76 SW15G21   29.60R
WISC RAPIDS    PTSUNNY   75  68  78 W14G20    29.60S
CAMP DOUGLAS   PTSUNNY   75  66  73 W17G26    29.62R
$$

WIZ011>013-019>022-031-037>040-048>050-172200-
NORTHEAST WISCONSIN

CITY           SKY/WX    TMP DP  RH WIND       PRES   REMARKS
ANTIGO         CLOUDY    68  67  98 SW10      29.56S
SHAWANO        CLOUDY    74  67  79 S10G16    29.54F
OCONTO         CLOUDY    74  65  72 SW13G18   29.55F
STURGEON BAY   PTSUNNY   76  66  71 SW15G21   29.57F
GREEN BAY      CLOUDY    74  67  78 SW15G24   29.57S
MANITOWOC      CLOUDY    77  64  64 SW17G26   29.60R
APPLETON       PTSUNNY   73  63  68 SW17G23   29.58F
CLINTONVILLE   CLOUDY    72  64  78 SW13      29.56S
OSHKOSH        PTSUNNY   75  65  70 SW17G26   29.59F
$$

WIZ032>034-041-042-053>061-172200-
SOUTHWEST WISCONSIN

CITY           SKY/WX    TMP DP  RH WIND       PRES   REMARKS
LA CROSSE      CLOUDY    74  63  68 NW20      29.66R
SPARTA         CLOUDY    70  64  83 W15G22    29.66R
VIROQUA        CLOUDY    70  65  86 W15G24    29.69R
BOSCOBEL       CLOUDY    72  66  81 W12G20    29.70R
PRAIRIE DU CHI CLOUDY    73  62  67 W17G26    29.72R
PLATTEVILLE    CLOUDY    73  68  84 W14G24    29.74S
$$

WIZ056-057-062-063-064-067-068-172200-
SOUTH CENTRAL WISCONSIN

CITY           SKY/WX    TMP DP  RH WIND       PRES   REMARKS
REEDSBURG      CLOUDY    73  65  77 W17G26    29.66R
BARABOO/DELLS  CLOUDY    72  63  75 W13G20    29.65S
LONE ROCK      CLOUDY    71  67  87 W13G25    29.68R
MINERAL POINT  CLOUDY    72  68  88 W18G24    29.72S
MADISON        PTSUNNY   74  65  73 W8G22     29.66R
MIDDLETON      CLOUDY    75  66  75 W17G25    29.68R
WATERTOWN      CLOUDY    75  68  77 SW18G24   29.65S
MONROE         LGT RAIN  72  64  78 W20G26    29.72R
JANESVILLE     RAIN      79  64  61 W21G30    29.68S HX  81
$$

WIZ051-052-058>065-066-070>072-172200-
SOUTHEAST WISCONSIN

CITY           SKY/WX    TMP DP  RH WIND       PRES   REMARKS
MILWAUKEE      PTSUNNY   80  64  58 SW22G30   29.66S HX  82
WAUKESHA       LGT RAIN  72  64  78 W12G26    29.68S
MILWAUKEE/TIMM LGT RAIN  75  61  60 SW24G32   29.66S
RACINE         PTSUNNY   79  65  62 SW16G23   29.69S HX  81
KENOSHA        PTSUNNY   78  64  61 SW18G26   29.69S HX  80
FOND DU LAC    PTSUNNY   74  67  78 SW10G21   29.62S
SHEBOYGAN      CLOUDY    75  70  84 SW9       29.62R
WEST BEND      CLOUDY    72  68  88 SW8       29.64S
JUNEAU         CLOUDY    71  67  89 SW20      29.66S
$$

LSZ147-162-172200-
LAKE SUPERIOR

STATION/POSITION TIME  TEMP    WIND        PRES    WAVE
                       AIR SEA DIR/SP/G            HT/PER
                 (UTC) (F)     (DEG/KT/KT) (MB)    (FT/S)
W MID LAKE BUOY  2050   59 60   10/ 17/ 21 1000.8F   5/ 5
DEVILS ISLAND    2100   60      20/ 10/ 11 1003.2R
SAXON HARBOR     2030   62     330/ 13/ 14 1002.0R
$$

LMZ867-665-643>646-172200-
LAKE MICHIGAN

STATION/POSITION TIME  TEMP    WIND        PRES    WAVE
                       AIR SEA DIR/SP/G            HT/PER
                 (UTC) (F)     (DEG/KT/KT) (MB)    (FT/S)
S GREEN BAY BUOY 2030   74 72  200/ 14/ 17 1001.0S
N MID LAKE BUOY  2050   69 68  180/ 17/ 21 1001.7F   4/ 5
NORTHPORT PIER   2040   71     160/  8/ 15 1001.4F
KEWAUNEE LAKESHO 2042   79     220/  8/ 16 1001.0F
SHEBOYGAN LAKESH 2100   74     230/ 15/ 18 1002.3R
PORT WASHINGTON  2040   81     250/ 10/ 21 1004.1S
ATWATER BUOY     2009   77 71  230/ 17/ 21 1004.6
MILWAUKEE LAKESH 2050   78     240/ 17/ 20   N/A
S MID LAKE BUOY  2050   74 71  230/ 12/ 16 1005.0R   3/ 5
KENOSHA   LAKESH 2100   79     240/ 14/ 24 1004.7
$$

TC  - TEMPERATURE IN CELSIUS
VSB - VISIBILITY IN STATUTE MILES
WCI - WIND CHILL INDEX
HX  - HEAT INDEX





USA.gov is the U.S. government's official web portal to all federal, state and local government web resources and services.